Location: Goheenville
(40.9070°N, 79.3720°W)
Time: 11:29:02
(UTC-04:00)

Meteor 2-10 Rocket - Visible Passes

Search period start: 22 July 2014 00:00
Search period end: 01 August 2014 00:00
Orbit: 735 x 885 km, 81.2° (Epoch: 21 July)

Date Brightness Start Highest point End Pass type
(mag) Time Alt. Az. Time Alt. Az. Time Alt. Az.
22 Jul 5.7 00:14:56 10° NW 00:18:43 19° W 00:20:51 15° WSW visible
22 Jul 4.3 22:07:43 10° N 22:13:02 40° ENE 22:15:58 23° SE visible
22 Jul 5.3 23:50:16 10° NW 23:54:49 26° W 23:57:08 20° WSW visible
23 Jul 4.7 21:43:55 10° NNE 21:48:47 29° ENE 21:52:15 16° ESE visible
23 Jul 4.9 23:25:48 10° NNW 23:30:53 36° W 23:33:25 23° SW visible
24 Jul 5.1 21:20:16 10° NNE 21:24:29 21° ENE 21:28:34 10° ESE visible
24 Jul 4.3 23:01:28 10° NNW 23:06:53 50° W 23:09:44 26° SSW visible
25 Jul 3.8 22:37:15 10° NNW 22:42:51 70° W 22:46:04 25° S visible
26 Jul 3.6 22:13:08 10° N 22:18:46 84° E 22:22:26 21° SSE visible
26 Jul 6.2 23:58:17 10° WNW 23:59:53 11° W 00:01:28 10° W visible
27 Jul 3.7 21:49:06 10° N 21:54:38 60° ENE 21:58:49 16° SSE visible
27 Jul 6.0 23:32:44 10° NW 23:36:02 16° W 23:39:16 10° WSW visible
28 Jul 4.1 21:25:09 10° N 21:30:27 43° ENE 21:35:13 11° SE visible
28 Jul 5.6 23:07:56 10° NW 23:12:08 23° W 23:16:14 10° SW visible
29 Jul 4.5 21:01:19 10° N 21:06:12 31° ENE 21:10:54 10° SE visible
29 Jul 5.1 22:43:23 10° NNW 22:48:12 32° W 22:52:50 10° SSW visible
30 Jul 4.6 22:19:01 10° NNW 22:24:14 44° W 22:29:12 10° SSW visible
31 Jul 4.0 21:54:46 10° NNW 22:00:12 63° W 22:05:22 10° S visible
